Regional Weather Roundup
Issued by NWS Bismarck, ND

Home | Current Version | Previous Version | Text Only | Print | Product List | Glossary On
Versions: 1 2 3 4 5 6 7 8 9 10 11 12 13 14 15 16 17 18 19 20 21 22 23 24 25 26 27 28 29 30 31 32 33 34 35 36 37 38 39 40 41 42 43 44 45 46 47 48 49 50
000
ASUS43 KBIS 252310
RWRBIS

NWR BROADCAST TEXT
NATIONAL WEATHER SERVICE BISMARCK ND
600 PM CDT FRI JUL 25 2014

NOTE: "FAIR" INDICATES FEW OR NO CLOUDS BELOW 12,000 FEET WITH NO
SIGNIFICANT WEATHER AND/OR OBSTRUCTIONS TO VISIBILITY.


CITY           SKY/WX    TMP DP  RH WIND       PRES   REMARKS
WILLISTON      SUNNY     84  38  19 W14G26    29.75S
MINOT          SUNNY     79  47  32 SW8       29.77S
MINOT AFB      SUNNY     78  53  42 W6        29.76F
BISMARCK       SUNNY     83  47  28 MISG      29.81F
DICKINSON      SUNNY     83  45  26 MISG      29.80F
GARRISON         N/A     77  52  41 S3        29.79F
HETTINGER ARPT SUNNY     81  46  29 S8        29.86S
JAMESTOWN      SUNNY     79  51  37 NW12      29.79S
CARRINGTON     FAIR      77  54  44 NW14      29.80F
CROSBY         FAIR      75  48  38 W12G18    29.75F
HARVEY         FAIR      75  54  46 W8        29.80S
HAZEN          FAIR      81  46  30 W6        29.80F
LINTON         FAIR      82  54  36 NW6       29.82F
MANDAN         FAIR      81  48  32 NW3       29.83S
RUGBY          FAIR      73  55  53 W9        29.78S
STANLEY        FAIR      77  48  36 W13       29.77F
TIOGA          FAIR      77  46  33 NW13G20   29.80F
WATFORD CITY   FAIR      82  41  23 W12G20    29.74F
$$

CITY           SKY/WX    TMP DP  RH WIND       PRES   REMARKS
GRAND FORKS    MOSUNNY   80  55  42 NW10      29.72F
GRAND FORKS AF SUNNY     80  55  43 W12       29.74F
DEVILS LAKE    SUNNY     77  52  41 W16G22    29.76S
FARGO          MOSUNNY   82  68  62 W9        29.74F
CANDO          FAIR      75  52  43 W15       29.78R
CAVALIER       FAIR      79  54  41 W10G18    29.72S
GRAFTON        FAIR      79  54  41 NW13      29.72S
GWINNER        CLEAR     82  64  54 NW10      29.79S
LANGDON        FAIR      75  50  41 W16G22    29.76S
ROLLA          FAIR      73  50  43 W16G24    29.78S
WALHALLA       FAIR      77  55  47 W10         N/A
$$

CITY           SKY/WX    TMP DP  RH WIND       PRES   REMARKS
ABERDEEN       SUNNY     81  60  48 N16       29.79R
MOBRIDGE       SUNNY     84  49  29 NE8       29.80F
BUFFALO          N/A     83  47  28 S12       29.80F
RAPID CITY     LGT RAIN  80  53  39 SE13      29.88F
GLASGOW        SUNNY     84  33  16 W24G35    29.74S
SIDNEY         SUNNY     88  36  15 W17G25    29.75F
WOLF POINT     SUNNY     86  33  15 W16G23    29.74F
GLENDIVE       SUNNY     88  34  14 SW22G38   29.78S
MILES CITY     SUNNY     90  28  11 W14G29    29.79S
BAKER          SUNNY     87  39  18 W15G22    29.83F
$$

CITY           SKY/WX    TMP DP  RH WIND       PRES   REMARKS
BILLINGS       SUNNY     89  25  10 W13G23    29.87F
GREAT FALLS    SUNNY     79  32  18 W28G37    29.90R
REGINA         LGT RAIN  64  54  68 NW20G28   29.68R
ESTEVAN        MOSUNNY   77  50  38 SW13      29.74F
$$




USA.gov is the U.S. government's official web portal to all federal, state and local government web resources and services.